Location: Eimen
(51.8766°N, 9.7806°E)
Time: 09:54:58
(UTC+00:00)

Cosmos 1908 Rocket - Pass Details

Date: 23 May 2024
Orbit: 602 x 629 km, 82.5° (Epoch: 23 June)

Event Time Altitude Azimuth Distance (km) Brightness Sun altitude
Rises 00:12:39 0° 352° (N) 2,927 8.3 -16.5°
Reaches altitude 10° 00:14:57 10° 357° (N) 2,012 7.4 -16.4°
Maximum altitude 00:19:19 53° 75° (ENE) 770 4.2 -16.2°
Enters shadow 00:22:29 17° 148° (SSE) 1,552 5.2 -16.1°
